TimeCDT,TemperatureF,Dew PointF,Humidity,Sea Level PressureIn,VisibilityMPH,Wind Direction,Wind SpeedMPH,Gust SpeedMPH,PrecipitationIn,Events,Conditions,WindDirDegrees,DateUTC
12:53 AM,66.0,63.0,90,30.02,10.0,South,5.8,-,N/A,,Overcast,180,2013-10-30 05:53:00
1:46 AM,64.4,62.6,94,30.05,10.0,South,4.6,-,N/A,,Overcast,190,2013-10-30 06:46:00
1:53 AM,64.9,63.0,93,30.02,10.0,South,4.6,-,N/A,,Overcast,180,2013-10-30 06:53:00
2:53 AM,66.0,63.0,90,30.01,10.0,South,6.9,-,N/A,,Overcast,180,2013-10-30 07:53:00
3:53 AM,64.9,63.0,93,30.01,10.0,South,4.6,-,N/A,,Overcast,170,2013-10-30 08:53:00
4:53 AM,64.9,63.0,93,30.00,10.0,SSE,4.6,-,N/A,,Overcast,160,2013-10-30 09:53:00
5:53 AM,64.9,63.0,93,30.00,10.0,South,6.9,-,N/A,,Overcast,170,2013-10-30 10:53:00
6:04 AM,66.2,62.6,88,30.03,10.0,South,9.2,-,N/A,,Overcast,190,2013-10-30 11:04:00
6:53 AM,66.0,63.0,90,30.01,10.0,South,9.2,-,N/A,,Overcast,170,2013-10-30 11:53:00
7:10 AM,66.2,62.6,88,30.03,10.0,South,10.4,-,N/A,,Overcast,180,2013-10-30 12:10:00
7:53 AM,64.9,63.0,93,29.99,10.0,SSE,10.4,-,N/A,,Mostly Cloudy,160,2013-10-30 12:53:00
8:41 AM,64.4,62.6,94,30.02,10.0,South,9.2,-,N/A,,Overcast,170,2013-10-30 13:41:00
8:53 AM,64.9,63.0,93,29.99,10.0,SSE,9.2,-,N/A,,Overcast,160,2013-10-30 13:53:00
9:30 AM,66.2,62.6,88,30.03,10.0,South,12.7,-,N/A,Thunderstorm,Mostly Cloudy,180,2013-10-30 14:30:00
9:53 AM,64.9,63.0,93,30.01,10.0,South,11.5,-,0.01,Rain-Thunderstorm,Light Thunderstorms and Rain,190,2013-10-30 14:53:00
10:17 AM,64.4,62.6,94,30.05,7.0,South,10.4,-,0.01,Rain-Thunderstorm,Light Thunderstorms and Rain,190,2013-10-30 15:17:00
10:30 AM,64.4,62.6,94,30.06,2.5,SSW,8.1,-,0.06,Rain-Thunderstorm,Rain,200,2013-10-30 15:30:00
10:38 AM,64.4,62.6,94,30.06,3.0,SSW,5.8,-,0.08,Rain-Thunderstorm,Rain,210,2013-10-30 15:38:00
10:41 AM,64.4,62.6,94,30.06,1.8,SW,5.8,-,0.12,Rain-Thunderstorm,Heavy Rain,220,2013-10-30 15:41:00
10:53 AM,64.0,64.0,100,30.03,2.0,SSW,4.6,-,0.16,Rain-Thunderstorm,Rain,200,2013-10-30 15:53:00
10:59 AM,64.4,64.4,100,30.05,3.0,South,3.5,-,0.02,Rain,Rain,190,2013-10-30 15:59:00
11:10 AM,64.4,64.4,100,30.05,2.5,SSE,3.5,-,0.05,Rain,Rain,160,2013-10-30 16:10:00
11:32 AM,64.4,64.4,100,30.02,3.0,SSE,6.9,-,0.09,Rain,Light Rain,150,2013-10-30 16:32:00
11:53 AM,64.0,64.0,100,29.99,4.0,SSE,8.1,-,0.11,Rain,Light Rain,150,2013-10-30 16:53:00
12:01 PM,64.4,64.4,100,30.01,4.0,SSE,9.2,-,0.00,Rain,Light Rain,160,2013-10-30 17:01:00
12:37 PM,64.4,64.4,100,30.01,2.0,SSE,9.2,-,0.07,Rain,Rain,160,2013-10-30 17:37:00
12:43 PM,64.4,64.4,100,30.01,1.5,SSE,11.5,-,0.10,Rain,Rain,160,2013-10-30 17:43:00
12:53 PM,64.0,64.0,100,29.97,0.8,SSE,12.7,-,0.24,Rain,Heavy Rain,160,2013-10-30 17:53:00
1:01 PM,64.4,64.4,100,29.98,2.0,SSE,8.1,-,0.00,Rain,Light Rain,150,2013-10-30 18:01:00
1:05 PM,64.4,64.4,100,29.98,4.0,SSE,8.1,-,0.00,Rain,Light Rain,150,2013-10-30 18:05:00
1:18 PM,64.4,64.4,100,29.97,5.0,SE,5.8,-,0.01,Rain,Light Rain,140,2013-10-30 18:18:00
1:31 PM,64.4,64.4,100,29.96,5.0,SE,5.8,-,0.01,Rain,Light Rain,130,2013-10-30 18:31:00
1:45 PM,64.4,64.4,100,29.96,2.5,Calm,Calm,-,0.06,Rain,Rain,0,2013-10-30 18:45:00
1:53 PM,64.0,64.0,100,29.93,1.8,NNE,3.5,-,0.09,Rain,Rain,20,2013-10-30 18:53:00
2:13 PM,64.4,64.4,100,29.94,2.0,NE,4.6,-,0.09,Rain,Rain,40,2013-10-30 19:13:00
2:26 PM,64.4,64.4,100,29.95,2.0,Calm,Calm,-,0.13,Rain,Rain,0,2013-10-30 19:26:00
2:36 PM,64.4,64.4,100,29.94,1.5,ENE,4.6,-,0.17,Rain,Heavy Rain,60,2013-10-30 19:36:00
2:53 PM,64.0,64.0,100,29.90,2.0,Variable,5.8,-,0.22,Rain,Light Rain,0,2013-10-30 19:53:00
3:00 PM,64.4,64.4,100,29.93,3.0,Variable,3.5,-,0.01,Rain,Rain,0,2013-10-30 20:00:00
3:12 PM,64.4,64.4,100,29.93,2.0,Calm,Calm,-,0.07,Rain,Rain,0,2013-10-30 20:12:00
3:43 PM,64.4,64.4,100,29.93,3.0,Calm,Calm,-,0.14,Rain,Light Rain,0,2013-10-30 20:43:00
3:53 PM,64.0,64.0,100,29.89,1.8,NE,4.6,-,0.19,Rain,Heavy Rain,40,2013-10-30 20:53:00
4:01 PM,64.4,64.4,100,29.91,1.2,North,5.8,-,0.03,Rain,Rain,360,2013-10-30 21:01:00
4:08 PM,64.4,64.4,100,29.95,1.5,NW,6.9,-,0.07,Rain,Heavy Rain,310,2013-10-30 21:08:00
4:15 PM,64.4,64.4,100,29.93,0.5,Calm,Calm,-,0.32,Fog-Rain,Heavy Rain,0,2013-10-30 21:15:00
4:27 PM,64.4,64.4,100,29.93,1.0,Calm,Calm,-,0.42,Rain,Heavy Rain,0,2013-10-30 21:27:00
4:34 PM,62.6,62.6,100,29.94,1.0,NW,3.5,-,0.47,Rain,Heavy Rain,310,2013-10-30 21:34:00
4:53 PM,63.0,63.0,100,29.89,1.2,SSE,5.8,-,0.62,Rain,Heavy Rain,160,2013-10-30 21:53:00
5:01 PM,62.6,62.6,100,29.92,2.0,SSE,10.4,-,0.02,Rain,Rain,160,2013-10-30 22:01:00
5:05 PM,62.6,62.6,100,29.92,3.0,SSE,10.4,-,0.02,Rain,Light Rain,160,2013-10-30 22:05:00
5:20 PM,62.6,62.6,100,29.92,3.0,SSE,10.4,-,0.06,Rain,Rain,160,2013-10-30 22:20:00
5:53 PM,63.0,62.1,97,29.88,5.0,South,12.7,-,0.10,Rain,Light Rain,170,2013-10-30 22:53:00
6:53 PM,62.1,61.0,96,29.87,10.0,South,13.8,-,0.04,,Overcast,170,2013-10-30 23:53:00
7:53 PM,61.0,61.0,100,29.86,10.0,South,11.5,-,0.00,,Overcast,170,2013-10-31 00:53:00
8:25 PM,60.8,60.8,100,29.88,10.0,South,15.0,-,0.00,,Overcast,170,2013-10-31 01:25:00
8:44 PM,60.8,60.8,100,29.86,10.0,South,17.3,24.2,0.00,,Overcast,170,2013-10-31 01:44:00
8:53 PM,61.0,60.1,97,29.84,10.0,South,13.8,21.9,0.00,,Overcast,170,2013-10-31 01:53:00
9:53 PM,61.0,60.1,97,29.83,10.0,South,16.1,-,0.00,,Overcast,170,2013-10-31 02:53:00
10:53 PM,62.1,60.1,93,29.82,10.0,South,11.5,21.9,N/A,,Overcast,190,2013-10-31 03:53:00
11:23 PM,62.6,60.8,94,29.83,10.0,South,18.4,26.5,N/A,,Overcast,180,2013-10-31 04:23:00
11:53 PM,62.1,60.1,93,29.79,10.0,South,12.7,-,N/A,,Overcast,190,2013-10-31 04:53:00